| time (UTC) | temp F | wind direction | speed knots | gust knots | rain 1hr in | rain 24hr in | rain mn in | humidity % | barometer mb |
| 20260510073120 | 70 | 217 | 0.0 | 0.0 | 0.07 | 0.01 | 0.01 | 98 | 1012.9 |
| 20260510072616 | 70 | 218 | 0.0 | 0.0 | 0.07 | 0.01 | 0.01 | 98 | 1013.3 |
| 20260510072113 | 70 | 218 | 0.0 | 0.0 | 0.00 | 0.00 | 0.00 | 98 | 1013.6 |
| 20260510071608 | 70 | 218 | 0.0 | 0.0 | 0.00 | 0.00 | 0.00 | 98 | 1013.8 |
| 20260510071107 | 70 | 218 | 0.0 | 0.0 | 0.00 | 0.00 | 0.00 | 98 | 1013.8 |
| 20260510070603 | 70 | 218 | 0.0 | 0.0 | 0.00 | 0.00 | 0.00 | 98 | 1014.0 |
| 20260510065557 | 70 | 218 | 0.0 | 0.0 | 0.00 | 0.00 | 0.00 | 98 | 1013.6 |
| 20260510065053 | 70 | 218 | 0.0 | 0.0 | 0.00 | 0.00 | 0.00 | 98 | 1013.5 |
| 20260510064549 | 70 | 218 | 0.0 | 0.0 | 0.00 | 0.00 | 0.00 | 98 | 1013.4 |
| 20260510064045 | 70 | 218 | 0.0 | 0.0 | 0.00 | 0.00 | 0.00 | 98 | 1013.5 |
| 20260510063543 | 70 | 218 | 0.0 | 0.0 | 0.00 | 0.00 | 0.00 | 98 | 1013.7 |
| 20260510063040 | 70 | 218 | 0.0 | 0.0 | 0.00 | 0.00 | 0.00 | 98 | 1013.8 |
| 20260510062536 | 70 | 218 | 0.0 | 0.0 | 0.00 | 0.00 | 0.00 | 98 | 1014.0 |
| 20260510062031 | 69 | 218 | 0.0 | 0.0 | 0.00 | 0.00 | 0.00 | 98 | 1014.0 |
| 20260510061528 | 69 | 218 | 0.0 | 0.0 | 0.00 | 0.00 | 0.00 | 98 | 1014.0 |
| 20260510061024 | 69 | 218 | 0.0 | 0.0 | 0.00 | 0.00 | 0.00 | 98 | 1013.9 |
| 20260510060521 | 69 | 218 | 0.0 | 0.0 | 0.00 | 0.00 | 0.00 | 98 | 1014.1 |
| 20260510060017 | 69 | 218 | 0.0 | 0.0 | 0.00 | 0.00 | 0.00 | 98 | 1014.0 |
| 20260510055513 | 69 | 218 | 0.0 | 0.0 | 0.00 | 0.00 | 0.00 | 98 | 1014.2 |
| 20260510055012 | 69 | 218 | 0.0 | 0.0 | 0.00 | 0.00 | 0.00 | 98 | 1014.2 |
| 20260510054507 | 69 | 218 | 0.0 | 0.0 | 0.00 | 0.00 | 0.00 | 98 | 1014.6 |
| 20260510054002 | 69 | 218 | 0.0 | 0.0 | 0.00 | 0.00 | 0.00 | 98 | 1014.4 |
| 20260510053457 | 69 | 218 | 0.0 | 0.0 | 0.00 | 0.00 | 0.00 | 98 | 1014.4 |
| 20260510052954 | 69 | 218 | 0.0 | 0.0 | 0.00 | 0.00 | 0.00 | 98 | 1014.5 |
| 20260510052450 | 69 | 218 | 0.0 | 0.0 | 0.00 | 0.00 | 0.00 | 98 | 1014.4 |
| 20260510051946 | 69 | 218 | 0.0 | 0.0 | 0.00 | 0.00 | 0.00 | 98 | 1014.6 |
| 20260510051442 | 69 | 218 | 0.0 | 0.0 | 0.00 | 0.00 | 0.00 | 98 | 1014.7 |
| 20260510050939 | 69 | 218 | 0.0 | 0.0 | 0.00 | 0.00 | 0.00 | 97 | 1014.7 |
| 20260510050436 | 69 | 218 | 0.0 | 0.0 | 0.00 | 0.00 | 0.00 | 97 | 1014.6 |
| 20260510045933 | 69 | 218 | 0.0 | 0.0 | 0.00 | 0.00 | 0.00 | 97 | 1014.9 |
| 20260510045430 | 69 | 218 | 0.0 | 0.0 | 0.00 | 0.00 | 0.00 | 97 | 1015.1 |
| 20260510044927 | 69 | 218 | 0.0 | 0.0 | 0.00 | 0.00 | 0.00 | 97 | 1014.8 |
| 20260510044424 | 70 | 218 | 0.0 | 0.0 | 0.00 | 0.00 | 0.00 | 97 | 1014.9 |
| 20260510043920 | 70 | 218 | 0.0 | 0.0 | 0.00 | 0.00 | 0.00 | 97 | 1014.8 |
| 20260510043416 | 70 | 218 | 0.0 | 0.0 | 0.00 | 0.00 | 0.00 | 97 | 1014.8 |
| 20260510042915 | 70 | 218 | 0.0 | 0.0 | 0.00 | 0.00 | 0.00 | 97 | 1014.7 |
| 20260510042410 | 70 | 218 | 0.0 | 0.0 | 0.00 | 0.00 | 0.00 | 97 | 1014.9 |
| 20260510041906 | 70 | 218 | 0.0 | 0.0 | 0.00 | 0.00 | 0.00 | 97 | 1014.8 |
| 20260510041403 | 70 | 218 | 0.0 | 0.0 | 0.00 | 0.00 | 0.00 | 97 | 1014.8 |
| 20260510040901 | 70 | 218 | 0.0 | 0.0 | 0.00 | 0.00 | 0.00 | 97 | 1015.1 |
| 20260510040358 | 70 | 218 | 0.0 | 0.0 | 0.00 | 0.00 | 0.00 | 97 | 1014.8 |
| 20260510035854 | 70 | 218 | 0.0 | 0.0 | 0.00 | 0.27 | 0.27 | 97 | 1014.7 |
| 20260510035349 | 70 | 218 | 0.0 | 0.0 | 0.00 | 0.27 | 0.27 | 97 | 1014.8 |
| 20260510034845 | 70 | 218 | 0.0 | 0.0 | 0.00 | 0.27 | 0.27 | 97 | 1014.5 |
| 20260510034343 | 70 | 218 | 0.0 | 0.0 | 0.00 | 0.27 | 0.27 | 97 | 1014.8 |
| 20260510033839 | 70 | 218 | 0.0 | 0.0 | 0.00 | 0.27 | 0.27 | 97 | 1015.0 |
| 20260510033336 | 70 | 218 | 0.0 | 0.0 | 0.00 | 0.27 | 0.27 | 97 | 1014.9 |
| 20260510032833 | 70 | 218 | 0.0 | 0.0 | 0.00 | 0.27 | 0.27 | 97 | 1015.1 |
| 20260510032329 | 70 | 218 | 0.9 | 0.9 | 0.00 | 0.27 | 0.27 | 97 | 1015.2 |
| 20260510031825 | 70 | 218 | 0.0 | 0.0 | 0.00 | 0.27 | 0.27 | 97 | 1014.9 |
| 20260510031320 | 70 | 217 | 0.0 | 0.0 | 0.00 | 0.27 | 0.27 | 97 | 1014.8 |
| 20260510030815 | 70 | 218 | 0.0 | 0.0 | 0.00 | 0.27 | 0.27 | 97 | 1014.7 |
| 20260510030312 | 70 | 218 | 0.0 | 0.0 | 0.00 | 0.27 | 0.27 | 97 | 1014.4 |
| 20260510025809 | 70 | 218 | 0.0 | 0.0 | 0.00 | 0.27 | 0.27 | 97 | 1014.3 |
| 20260510025306 | 70 | 218 | 0.0 | 0.0 | 0.00 | 0.27 | 0.27 | 97 | 1014.4 |
| 20260510024803 | 70 | 218 | 0.0 | 0.0 | 0.00 | 0.27 | 0.27 | 97 | 1014.4 |
| 20260510024300 | 70 | 218 | 0.0 | 0.0 | 0.00 | 0.27 | 0.27 | 97 | 1014.5 |
| 20260510023756 | 70 | 218 | 0.0 | 0.0 | 0.00 | 0.27 | 0.27 | 97 | 1014.4 |
| 20260510023253 | 70 | 218 | 0.9 | 0.9 | 0.00 | 0.27 | 0.27 | 97 | 1014.3 |
| 20260510022750 | 70 | 218 | 0.0 | 0.0 | 0.00 | 0.27 | 0.27 | 97 | 1014.0 |
| 20260510022249 | 70 | 218 | 0.0 | 0.0 | 0.00 | 0.27 | 0.27 | 97 | 1013.9 |
| 20260510021748 | 70 | 218 | 0.0 | 0.0 | 0.00 | 0.27 | 0.27 | 97 | 1013.9 |
| 20260510021247 | 70 | 218 | 0.0 | 0.0 | 0.00 | 0.27 | 0.27 | 97 | 1013.7 |
| 20260510020743 | 70 | 218 | 0.0 | 0.0 | 0.00 | 0.27 | 0.27 | 97 | 1014.1 |
| 20260510020242 | 70 | 217 | 0.0 | 0.0 | 0.00 | 0.27 | 0.27 | 97 | 1014.1 |
| 20260510015739 | 70 | 219 | 0.0 | 0.0 | 0.00 | 0.27 | 0.27 | 97 | 1014.1 |
| 20260510015235 | 70 | 219 | 0.0 | 0.0 | 0.00 | 0.27 | 0.27 | 97 | 1014.0 |
| 20260510014730 | 71 | 219 | 0.0 | 0.0 | 0.00 | 0.27 | 0.27 | 97 | 1014.0 |
| 20260510014228 | 71 | 219 | 0.0 | 0.0 | 0.00 | 0.27 | 0.27 | 97 | 1014.1 |
| 20260510013724 | 71 | 219 | 0.9 | 0.9 | 0.00 | 0.27 | 0.27 | 97 | 1013.9 |
| 20260510013219 | 71 | 219 | 0.9 | 0.9 | 0.00 | 0.27 | 0.27 | 97 | 1013.3 |
| 20260510012719 | 71 | 219 | 0.0 | 0.0 | 0.00 | 0.27 | 0.27 | 97 | 1013.6 |
| 20260510012215 | 71 | 219 | 0.9 | 0.9 | 0.00 | 0.27 | 0.27 | 97 | 1013.6 |
| 20260510011715 | 71 | 218 | 0.0 | 0.0 | 0.00 | 0.27 | 0.27 | 97 | 1013.6 |
| 20260510011211 | 71 | 218 | 0.0 | 0.0 | 0.00 | 0.27 | 0.27 | 97 | 1013.5 |
| 20260510010708 | 71 | 228 | 0.9 | 0.9 | 0.00 | 0.27 | 0.27 | 97 | 1013.6 |
| 20260510010204 | 71 | 249 | 0.9 | 0.9 | 0.00 | 0.27 | 0.27 | 97 | 1013.5 |
| 20260510005701 | 71 | 245 | 0.9 | 0.9 | 0.00 | 0.27 | 0.27 | 97 | 1013.1 |
| 20260510005157 | 71 | 245 | 0.9 | 0.9 | 0.00 | 0.27 | 0.27 | 97 | 1013.1 |
| 20260510004655 | 71 | 245 | 0.9 | 0.9 | 0.00 | 0.27 | 0.27 | 97 | 1013.1 |
| 20260510004153 | 71 | 245 | 0.0 | 0.0 | 0.00 | 0.27 | 0.27 | 97 | 1013.4 |
| 20260510003650 | 71 | 245 | 0.0 | 0.0 | 0.00 | 0.27 | 0.27 | 96 | 1013.2 |
| 20260510003146 | 71 | 242 | 0.0 | 0.0 | 0.00 | 0.27 | 0.27 | 96 | 1013.3 |
| 20260510002646 | 71 | 242 | 0.0 | 0.0 | 0.00 | 0.27 | 0.27 | 96 | 1013.3 |
| 20260510002143 | 71 | 242 | 0.9 | 0.9 | 0.00 | 0.27 | 0.27 | 96 | 1013.6 |
| 20260510001640 | 71 | 242 | 0.0 | 0.0 | 0.00 | 0.27 | 0.27 | 96 | 1013.7 |
| 20260510001138 | 71 | 243 | 1.7 | 1.7 | 0.05 | 0.27 | 0.27 | 96 | 1013.9 |
| 20260510000639 | 71 | 241 | 0.0 | 0.0 | 0.05 | 0.27 | 0.27 | 96 | 1013.6 |
| 20260510000137 | 71 | 241 | 0.0 | 0.9 | 0.00 | 0.26 | 0.26 | 96 | 1013.8 |
| 20260509235632 | 71 | 241 | 0.0 | 0.0 | 0.00 | 0.26 | 0.26 | 96 | 1013.6 |
| 20260509235129 | 71 | 241 | 0.0 | 0.0 | 0.00 | 0.26 | 0.26 | 96 | 1013.5 |
| 20260509234625 | 71 | 242 | 0.9 | 0.9 | 0.00 | 0.26 | 0.26 | 96 | 1013.6 |
| 20260509234123 | 71 | 241 | 0.0 | 0.0 | 0.00 | 0.26 | 0.26 | 96 | 1013.6 |
| 20260509233620 | 71 | 241 | 0.0 | 0.0 | 0.00 | 0.26 | 0.26 | 96 | 1013.5 |
| 20260509233118 | 72 | 241 | 0.0 | 0.0 | 0.00 | 0.26 | 0.26 | 96 | 1013.6 |
| 20260509232614 | 71 | 241 | 0.0 | 0.0 | 0.00 | 0.26 | 0.26 | 96 | 1013.7 |
| 20260509232111 | 72 | 241 | 0.0 | 0.0 | 0.00 | 0.26 | 0.26 | 96 | 1013.5 |
| 20260509231607 | 72 | 241 | 0.0 | 0.0 | 0.00 | 0.26 | 0.26 | 96 | 1013.3 |
| 20260509231105 | 72 | 241 | 0.0 | 0.0 | 0.00 | 0.26 | 0.26 | 96 | 1013.5 |
| 20260509230602 | 72 | 241 | 0.0 | 0.0 | 0.00 | 0.26 | 0.26 | 96 | 1013.4 |
| 20260509230059 | 71 | 241 | 0.0 | 0.0 | 0.00 | 0.26 | 0.26 | 96 | 1013.4 |
| 20260509225554 | 71 | 241 | 0.0 | 0.0 | 0.00 | 0.26 | 0.26 | 96 | 1013.5 |
| 20260509225050 | 71 | 241 | 0.0 | 0.0 | 0.00 | 0.26 | 0.26 | 95 | 1013.4 |
| 20260509224546 | 71 | 241 | 0.0 | 0.0 | 0.00 | 0.26 | 0.26 | 95 | 1013.4 |
| 20260509224043 | 71 | 241 | 0.0 | 0.0 | 0.00 | 0.26 | 0.26 | 95 | 1013.7 |
| 20260509223540 | 71 | 241 | 0.0 | 0.0 | 0.00 | 0.26 | 0.26 | 95 | 1013.2 |
| 20260509223038 | 71 | 241 | 0.0 | 0.0 | 0.00 | 0.26 | 0.26 | 95 | 1013.3 |
| 20260509222533 | 71 | 241 | 0.0 | 0.0 | 0.00 | 0.26 | 0.26 | 95 | 1013.1 |
| 20260509222029 | 71 | 241 | 0.0 | 0.0 | 0.00 | 0.26 | 0.26 | 95 | 1013.2 |
| 20260509221525 | 72 | 241 | 0.0 | 0.0 | 0.00 | 0.26 | 0.26 | 96 | 1013.2 |
| 20260509221021 | 72 | 241 | 0.0 | 0.0 | 0.00 | 0.26 | 0.26 | 96 | 1013.1 |
| 20260509220517 | 72 | 241 | 0.0 | 0.0 | 0.00 | 0.26 | 0.26 | 96 | 1013.0 |
| 20260509220014 | 71 | 241 | 0.0 | 0.0 | 0.00 | 0.26 | 0.26 | 95 | 1013.0 |
| 20260509215509 | 71 | 241 | 0.0 | 0.0 | 0.00 | 0.26 | 0.26 | 95 | 1013.2 |
| 20260509215007 | 71 | 242 | 0.0 | 0.0 | 0.00 | 0.26 | 0.26 | 95 | 1013.1 |
| 20260509214504 | 71 | 241 | 0.0 | 0.0 | 0.00 | 0.26 | 0.26 | 95 | 1013.2 |
| 20260509214001 | 71 | 242 | 0.0 | 0.0 | 0.00 | 0.26 | 0.26 | 95 | 1013.1 |
| 20260509213457 | 71 | 241 | 0.0 | 0.0 | 0.00 | 0.26 | 0.26 | 95 | 1013.3 |
| 20260509212954 | 71 | 241 | 0.0 | 0.0 | 0.00 | 0.26 | 0.26 | 95 | 1013.3 |
| 20260509212451 | 71 | 241 | 0.0 | 0.0 | 0.00 | 0.26 | 0.26 | 95 | 1013.4 |
| 20260509211947 | 71 | 240 | 0.0 | 0.0 | 0.00 | 0.26 | 0.26 | 95 | 1013.4 |
| 20260509211443 | 71 | 240 | 0.0 | 0.0 | 0.00 | 0.26 | 0.26 | 95 | 1013.5 |
| 20260509210940 | 71 | 240 | 0.0 | 0.0 | 0.00 | 0.26 | 0.26 | 95 | 1013.3 |
| 20260509210437 | 71 | 240 | 0.0 | 0.0 | 0.00 | 0.26 | 0.26 | 95 | 1013.3 |
| 20260509205932 | 71 | 238 | 0.0 | 0.0 | 0.07 | 0.26 | 0.26 | 95 | 1013.6 |
| 20260509205427 | 71 | 238 | 0.0 | 0.0 | 0.12 | 0.26 | 0.26 | 95 | 1013.6 |
| 20260509204923 | 71 | 238 | 0.0 | 0.0 | 0.05 | 0.25 | 0.25 | 95 | 1013.4 |
| 20260509204419 | 71 | 238 | 0.0 | 0.0 | 0.00 | 0.24 | 0.24 | 95 | 1013.6 |
| 20260509203916 | 71 | 238 | 0.0 | 0.0 | 0.07 | 0.24 | 0.24 | 95 | 1013.6 |
| 20260509203412 | 71 | 238 | 0.0 | 0.0 | 0.07 | 0.24 | 0.24 | 95 | 1013.8 |
| 20260509202910 | 71 | 233 | 0.0 | 0.0 | 0.07 | 0.24 | 0.24 | 95 | 1013.5 |
| 20260509202405 | 71 | 233 | 0.0 | 0.0 | 0.00 | 0.23 | 0.23 | 95 | 1013.6 |
| 20260509201901 | 72 | 240 | 0.0 | 0.0 | 0.31 | 0.23 | 0.23 | 94 | 1013.4 |
| 20260509201356 | 71 | 209 | 0.0 | 0.0 | 0.59 | 0.23 | 0.23 | 94 | 1013.6 |
| 20260509200854 | 72 | 221 | 0.0 | 0.0 | 0.35 | 0.18 | 0.18 | 94 | 1013.5 |
| 20260509200354 | 72 | 292 | 0.0 | 0.0 | 0.07 | 0.13 | 0.13 | 93 | 1013.3 |
| 20260509195851 | 72 | 290 | 0.9 | 0.9 | 0.05 | 0.12 | 0.12 | 93 | 1013.6 |
| 20260509195351 | 72 | 289 | 0.0 | 0.0 | 0.12 | 0.12 | 0.12 | 92 | 1013.2 |
| 20260509194851 | 73 | 286 | 0.0 | 0.0 | 0.12 | 0.11 | 0.11 | 91 | 1013.5 |
| 20260509194347 | 74 | 313 | 1.7 | 1.7 | 0.05 | 0.10 | 0.10 | 91 | 1013.6 |
| 20260509193844 | 75 | 254 | 1.7 | 0.9 | 0.07 | 0.09 | 0.09 | 91 | 1013.2 |
| 20260509193344 | 75 | 213 | 0.0 | 0.0 | 0.19 | 0.09 | 0.09 | 90 | 1013.0 |
| 20260509192840 | 75 | 212 | 0.9 | 0.9 | 0.24 | 0.08 | 0.08 | 88 | 1013.1 |
| 20260509192336 | 76 | 200 | 1.7 | 1.7 | 0.19 | 0.06 | 0.06 | 86 | 1013.0 |
| 20260509191832 | 76 | 198 | 1.7 | 1.7 | 0.07 | 0.04 | 0.04 | 84 | 1013.1 |
| 20260509191327 | 77 | 222 | 1.7 | 1.7 | 0.00 | 0.03 | 0.03 | 81 | 1013.2 |
| 20260509190824 | 78 | 194 | 1.7 | 1.7 | 0.00 | 0.03 | 0.03 | 78 | 1013.3 |
| 20260509190321 | 78 | 224 | 0.9 | 0.9 | 0.00 | 0.03 | 0.03 | 76 | 1013.0 |
| 20260509185818 | 79 | 238 | 1.7 | 1.7 | 0.00 | 0.03 | 0.03 | 75 | 1012.8 |
| 20260509185314 | 79 | 240 | 0.9 | 0.9 | 0.00 | 0.03 | 0.03 | 74 | 1012.9 |
| 20260509184812 | 80 | 207 | 1.7 | 1.7 | 0.00 | 0.03 | 0.03 | 74 | 1013.1 |
| 20260509184309 | 80 | 250 | 4.3 | 5.2 | 0.00 | 0.03 | 0.03 | 72 | 1013.1 |
| 20260509183805 | 80 | 102 | 0.9 | 0.9 | 0.00 | 0.03 | 0.03 | 73 | 1013.2 |
| 20260509183301 | 80 | 241 | 0.0 | 0.0 | 0.00 | 0.03 | 0.03 | 75 | 1013.0 |
| 20260509182756 | 79 | 256 | 2.6 | 2.6 | 0.00 | 0.03 | 0.03 | 74 | 1013.1 |
| 20260509182254 | 79 | 239 | 3.5 | 3.5 | 0.00 | 0.03 | 0.03 | 74 | 1013.2 |
| 20260509181751 | 80 | 174 | 1.7 | 1.7 | 0.00 | 0.03 | 0.03 | 73 | 1013.1 |
| 20260509181249 | 80 | 217 | 1.7 | 1.7 | 0.00 | 0.03 | 0.03 | 73 | 1013.1 |
| 20260509180745 | 80 | 220 | 0.9 | 0.9 | 0.00 | 0.03 | 0.03 | 73 | 1013.1 |
| 20260509180242 | 80 | 225 | 1.7 | 1.7 | 0.00 | 0.03 | 0.03 | 71 | 1013.0 |
| 20260509175738 | 81 | 216 | 4.3 | 3.5 | 0.00 | 0.03 | 0.03 | 70 | 1012.9 |
| 20260509175235 | 80 | 225 | 0.9 | 0.9 | 0.00 | 0.03 | 0.03 | 72 | 1013.3 |
| 20260509174731 | 81 | 218 | 2.6 | 3.5 | 0.00 | 0.03 | 0.03 | 72 | 1013.5 |
| 20260509174226 | 80 | 234 | 3.5 | 2.6 | 0.00 | 0.03 | 0.03 | 71 | 1013.4 |
| 20260509173723 | 81 | 228 | 2.6 | 3.5 | 0.00 | 0.03 | 0.03 | 71 | 1013.4 |
| 20260509173219 | 80 | 204 | 1.7 | 1.7 | 0.00 | 0.03 | 0.03 | 72 | 1013.4 |
| 20260509172715 | 80 | 147 | 2.6 | 2.6 | 0.00 | 0.03 | 0.03 | 73 | 1013.2 |
| 20260509172211 | 79 | 245 | 0.9 | 0.9 | 0.00 | 0.03 | 0.03 | 74 | 1013.6 |
| 20260509171707 | 79 | 239 | 0.9 | 0.9 | 0.00 | 0.03 | 0.03 | 73 | 1013.4 |
| 20260509171203 | 79 | 197 | 2.6 | 3.5 | 0.00 | 0.03 | 0.03 | 74 | 1013.6 |
| 20260509170700 | 79 | 218 | 1.7 | 1.7 | 0.00 | 0.03 | 0.03 | 73 | 1013.8 |
| 20260509170156 | 79 | 177 | 0.0 | 0.0 | 0.00 | 0.03 | 0.03 | 74 | 1013.7 |
| 20260509165655 | 80 | 240 | 3.5 | 3.5 | 0.00 | 0.03 | 0.03 | 72 | 1013.6 |
| 20260509165150 | 80 | 216 | 0.9 | 0.9 | 0.00 | 0.03 | 0.03 | 71 | 1013.7 |
| 20260509164646 | 81 | 260 | 1.7 | 1.7 | 0.00 | 0.03 | 0.03 | 69 | 1013.7 |
| 20260509164142 | 81 | 166 | 0.0 | 0.0 | 0.00 | 0.03 | 0.03 | 70 | 1013.9 |
| 20260509163640 | 80 | 175 | 0.9 | 1.7 | 0.00 | 0.03 | 0.03 | 71 | 1013.9 |
| 20260509163135 | 80 | 169 | 0.9 | 0.9 | 0.00 | 0.03 | 0.03 | 71 | 1014.0 |
| 20260509162633 | 79 | 175 | 1.7 | 1.7 | 0.00 | 0.03 | 0.03 | 73 | 1014.0 |
| 20260509162129 | 80 | 166 | 0.0 | 0.0 | 0.00 | 0.03 | 0.03 | 72 | 1013.9 |
| 20260509161625 | 80 | 199 | 1.7 | 0.9 | 0.00 | 0.03 | 0.03 | 70 | 1014.1 |
| 20260509161120 | 79 | 223 | 1.7 | 0.9 | 0.00 | 0.03 | 0.03 | 71 | 1013.9 |
| 20260509160617 | 80 | 222 | 0.0 | 0.9 | 0.00 | 0.03 | 0.03 | 72 | 1013.8 |
| 20260509160112 | 80 | 222 | 0.0 | 0.0 | 0.00 | 0.03 | 0.03 | 70 | 1013.7 |
| 20260509155608 | 80 | 222 | 0.0 | 0.0 | 0.00 | 0.03 | 0.03 | 71 | 1013.4 |
| 20260509155105 | 78 | 222 | 0.0 | 0.0 | 0.00 | 0.03 | 0.03 | 74 | 1013.2 |
| 20260509154600 | 78 | 222 | 0.0 | 0.9 | 0.00 | 0.03 | 0.03 | 73 | 1013.5 |
| 20260509154058 | 78 | 222 | 0.0 | 0.0 | 0.00 | 0.03 | 0.03 | 73 | 1013.8 |
| 20260509153555 | 78 | 222 | 0.0 | 0.0 | 0.00 | 0.03 | 0.03 | 74 | 1013.8 |
| 20260509153052 | 78 | 223 | 0.0 | 0.0 | 0.00 | 0.03 | 0.03 | 74 | 1014.0 |
| 20260509152548 | 77 | 222 | 0.0 | 0.0 | 0.00 | 0.03 | 0.03 | 74 | 1014.3 |
| 20260509152045 | 77 | 222 | 0.9 | 0.9 | 0.00 | 0.03 | 0.03 | 76 | 1014.2 |
| 20260509151541 | 77 | 223 | 0.0 | 0.0 | 0.00 | 0.03 | 0.03 | 76 | 1014.2 |
| 20260509151039 | 76 | 222 | 0.0 | 0.0 | 0.00 | 0.03 | 0.03 | 80 | 1014.3 |
| 20260509150536 | 76 | 222 | 0.0 | 0.0 | 0.00 | 0.03 | 0.03 | 81 | 1014.4 |
| 20260509150035 | 75 | 223 | 0.0 | 0.0 | 0.00 | 0.03 | 0.03 | 81 | 1015.0 |
| 20260509145530 | 75 | 222 | 0.0 | 0.0 | 0.00 | 0.03 | 0.03 | 81 | 1014.8 |
| 20260509145025 | 75 | 222 | 0.0 | 0.0 | 0.00 | 0.03 | 0.03 | 81 | 1014.5 |
| 20260509144522 | 75 | 223 | 0.0 | 0.0 | 0.00 | 0.03 | 0.03 | 81 | 1014.7 |
| 20260509144020 | 75 | 222 | 0.0 | 0.0 | 0.00 | 0.03 | 0.03 | 81 | 1014.7 |
| 20260509143516 | 75 | 223 | 0.0 | 0.0 | 0.00 | 0.03 | 0.03 | 81 | 1014.7 |
| 20260509143015 | 75 | 222 | 0.0 | 0.0 | 0.00 | 0.03 | 0.03 | 81 | 1014.6 |
| 20260509142510 | 75 | 223 | 0.0 | 0.0 | 0.00 | 0.03 | 0.03 | 80 | 1014.1 |
| 20260509142005 | 75 | 222 | 0.0 | 0.0 | 0.00 | 0.03 | 0.03 | 80 | 1014.2 |
| 20260509141502 | 75 | 222 | 0.9 | 0.0 | 0.00 | 0.03 | 0.03 | 79 | 1014.3 |
| 20260509140959 | 75 | 222 | 0.0 | 0.0 | 0.00 | 0.03 | 0.03 | 81 | 1014.3 |
| 20260509140455 | 74 | 222 | 0.9 | 0.9 | 0.00 | 0.03 | 0.03 | 84 | 1014.5 |
| 20260509135954 | 74 | 222 | 0.9 | 0.9 | 0.00 | 0.03 | 0.03 | 85 | 1014.1 |
| 20260509135450 | 73 | 222 | 0.0 | 0.0 | 0.00 | 0.03 | 0.03 | 87 | 1014.3 |
| 20260509134948 | 73 | 222 | 0.0 | 0.0 | 0.00 | 0.03 | 0.03 | 87 | 1014.3 |
| 20260509134445 | 73 | 222 | 0.9 | 0.9 | 0.00 | 0.03 | 0.03 | 87 | 1014.2 |
| 20260509133943 | 72 | 222 | 0.0 | 0.0 | 0.00 | 0.03 | 0.03 | 89 | 1014.4 |
| 20260509133439 | 72 | 222 | 0.0 | 0.0 | 0.00 | 0.03 | 0.03 | 91 | 1014.3 |
| 20260509132937 | 72 | 222 | 0.0 | 0.0 | 0.00 | 0.03 | 0.03 | 90 | 1014.0 |
| 20260509132435 | 72 | 222 | 0.0 | 0.0 | 0.00 | 0.03 | 0.03 | 90 | 1013.7 |
| 20260509131932 | 71 | 222 | 0.0 | 0.0 | 0.00 | 0.03 | 0.03 | 92 | 1013.6 |
| 20260509131429 | 71 | 222 | 0.0 | 0.0 | 0.00 | 0.03 | 0.03 | 91 | 1013.8 |
| 20260509130926 | 71 | 222 | 0.0 | 0.0 | 0.00 | 0.03 | 0.03 | 91 | 1013.6 |
| 20260509130421 | 71 | 222 | 0.0 | 0.0 | 0.00 | 0.03 | 0.03 | 92 | 1013.5 |
| 20260509125918 | 71 | 222 | 0.0 | 0.0 | 0.00 | 0.03 | 0.03 | 94 | 1013.8 |
| 20260509125415 | 70 | 222 | 0.0 | 0.0 | 0.00 | 0.03 | 0.03 | 94 | 1013.9 |
| 20260509124911 | 70 | 222 | 0.0 | 0.0 | 0.00 | 0.03 | 0.03 | 95 | 1013.7 |
| 20260509124408 | 70 | 222 | 0.0 | 0.0 | 0.00 | 0.03 | 0.03 | 95 | 1013.6 |
| 20260509123906 | 70 | 222 | 0.9 | 0.9 | 0.00 | 0.03 | 0.03 | 95 | 1013.5 |
| 20260509123403 | 70 | 222 | 0.0 | 0.0 | 0.00 | 0.03 | 0.03 | 96 | 1013.3 |
| 20260509122858 | 70 | 222 | 0.0 | 0.0 | 0.00 | 0.03 | 0.03 | 97 | 1013.3 |
| 20260509122355 | 69 | 222 | 0.0 | 0.0 | 0.00 | 0.03 | 0.03 | 97 | 1013.4 |
| 20260509121852 | 69 | 222 | 0.0 | 0.0 | 0.00 | 0.03 | 0.03 | 97 | 1013.6 |
| 20260509121349 | 69 | 222 | 0.0 | 0.0 | 0.00 | 0.03 | 0.03 | 97 | 1013.7 |
| 20260509120848 | 69 | 222 | 0.0 | 0.0 | 0.00 | 0.03 | 0.03 | 97 | 1013.7 |
| 20260509120345 | 69 | 222 | 0.0 | 0.0 | 0.00 | 0.03 | 0.03 | 97 | 1013.5 |
| 20260509115843 | 68 | 222 | 0.0 | 0.0 | 0.00 | 0.03 | 0.03 | 97 | 1013.5 |
| 20260509115340 | 68 | 222 | 0.0 | 0.0 | 0.00 | 0.03 | 0.03 | 97 | 1013.4 |
| 20260509114837 | 68 | 222 | 0.0 | 0.0 | 0.00 | 0.03 | 0.03 | 97 | 1013.2 |
| 20260509114336 | 68 | 222 | 0.0 | 0.0 | 0.00 | 0.03 | 0.03 | 97 | 1013.3 |
| 20260509113835 | 68 | 222 | 0.0 | 0.0 | 0.00 | 0.03 | 0.03 | 97 | 1013.2 |
| 20260509113331 | 67 | 223 | 0.0 | 0.0 | 0.00 | 0.03 | 0.03 | 97 | 1013.4 |
| 20260509112828 | 67 | 223 | 0.0 | 0.0 | 0.00 | 0.03 | 0.03 | 97 | 1013.2 |
| 20260509112325 | 67 | 223 | 0.0 | 0.0 | 0.00 | 0.03 | 0.03 | 96 | 1013.2 |
| 20260509111822 | 67 | 223 | 0.9 | 0.9 | 0.00 | 0.03 | 0.03 | 96 | 1013.3 |
| 20260509111319 | 67 | 222 | 0.0 | 0.0 | 0.00 | 0.03 | 0.03 | 96 | 1013.0 |
| 20260509110817 | 67 | 222 | 0.0 | 0.0 | 0.00 | 0.03 | 0.03 | 96 | 1012.8 |
| 20260509110313 | 67 | 222 | 0.9 | 0.9 | 0.00 | 0.03 | 0.03 | 96 | 1012.7 |
| 20260509105811 | 67 | 222 | 0.9 | 0.9 | 0.00 | 0.03 | 0.03 | 96 | 1012.8 |
| 20260509105309 | 67 | 222 | 0.9 | 0.9 | 0.00 | 0.03 | 0.03 | 96 | 1012.6 |
| 20260509104805 | 67 | 222 | 0.0 | 0.0 | 0.00 | 0.03 | 0.03 | 96 | 1012.3 |
| 20260509104302 | 67 | 222 | 0.0 | 0.0 | 0.00 | 0.03 | 0.03 | 95 | 1012.3 |
| 20260509103800 | 67 | 223 | 0.0 | 0.0 | 0.00 | 0.03 | 0.03 | 95 | 1012.2 |
| 20260509103257 | 67 | 223 | 0.9 | 0.9 | 0.00 | 0.03 | 0.03 | 95 | 1012.3 |
| 20260509102756 | 67 | 222 | 0.0 | 0.0 | 0.00 | 0.03 | 0.03 | 95 | 1012.3 |
| 20260509102252 | 68 | 222 | 0.0 | 0.0 | 0.00 | 0.03 | 0.03 | 94 | 1012.3 |
| 20260509101749 | 68 | 223 | 0.0 | 0.9 | 0.00 | 0.03 | 0.03 | 94 | 1012.4 |
| 20260509101245 | 68 | 222 | 0.9 | 0.9 | 0.00 | 0.03 | 0.03 | 93 | 1011.8 |
| 20260509100742 | 68 | 222 | 0.0 | 0.0 | 0.00 | 0.03 | 0.03 | 91 | 1011.9 |
| 20260509100240 | 68 | 227 | 0.9 | 0.9 | 0.00 | 0.03 | 0.03 | 92 | 1011.5 |
| 20260509095736 | 69 | 234 | 0.9 | 0.9 | 0.00 | 0.03 | 0.03 | 92 | 1011.4 |
| 20260509095233 | 69 | 231 | 0.9 | 0.9 | 0.00 | 0.03 | 0.03 | 91 | 1011.4 |
| 20260509094731 | 69 | 225 | 0.9 | 1.7 | 0.00 | 0.03 | 0.03 | 91 | 1011.7 |
| 20260509094227 | 69 | 256 | 1.7 | 1.7 | 0.00 | 0.03 | 0.03 | 91 | 1011.5 |
| 20260509093725 | 69 | 259 | 2.6 | 2.6 | 0.00 | 0.03 | 0.03 | 92 | 1011.3 |
| 20260509093222 | 68 | 256 | 2.6 | 3.5 | 0.00 | 0.03 | 0.03 | 93 | 1011.1 |
| 20260509092720 | 68 | 184 | 1.7 | 2.6 | 0.00 | 0.03 | 0.03 | 94 | 1011.2 |
| 20260509092218 | 68 | 222 | 0.9 | 1.7 | 0.00 | 0.03 | 0.03 | 95 | 1011.5 |
| 20260509091716 | 68 | 235 | 1.7 | 2.6 | 0.00 | 0.03 | 0.03 | 96 | 1011.6 |
| 20260509091212 | 68 | 264 | 1.7 | 0.9 | 0.00 | 0.03 | 0.03 | 96 | 1011.3 |
| 20260509090710 | 68 | 246 | 3.5 | 3.5 | 0.00 | 0.03 | 0.03 | 97 | 1010.9 |
| 20260509090207 | 68 | 258 | 1.7 | 2.6 | 0.00 | 0.03 | 0.03 | 97 | 1011.2 |
| 20260509085704 | 68 | 215 | 1.7 | 1.7 | 0.00 | 0.03 | 0.03 | 96 | 1011.5 |
| 20260509085201 | 68 | 157 | 1.7 | 1.7 | 0.00 | 0.03 | 0.03 | 97 | 1011.9 |
| 20260509084658 | 68 | 265 | 0.9 | 0.9 | 0.00 | 0.03 | 0.03 | 97 | 1012.2 |
| 20260509084154 | 68 | 266 | 0.0 | 0.0 | 0.00 | 0.03 | 0.03 | 96 | 1012.4 |
| 20260509083653 | 68 | 266 | 0.0 | 0.0 | 0.00 | 0.03 | 0.03 | 96 | 1012.7 |
| 20260509083148 | 68 | 267 | 0.0 | 0.0 | 0.00 | 0.03 | 0.03 | 96 | 1012.7 |
| 20260509082646 | 68 | 267 | 0.0 | 0.0 | 0.00 | 0.03 | 0.03 | 96 | 1012.8 |
| 20260509082142 | 68 | 267 | 0.0 | 0.0 | 0.00 | 0.03 | 0.03 | 96 | 1013.0 |
| 20260509081639 | 68 | 267 | 0.9 | 0.9 | 0.00 | 0.03 | 0.03 | 96 | 1012.5 |
| 20260509081136 | 68 | 228 | 0.9 | 0.9 | 0.00 | 0.03 | 0.03 | 96 | 1012.3 |
| 20260509080634 | 68 | 256 | 1.7 | 2.6 | 0.00 | 0.03 | 0.03 | 96 | 1012.3 |
| 20260509080132 | 68 | 183 | 0.9 | 0.9 | 0.00 | 0.03 | 0.03 | 96 | 1012.3 |
| 20260509075630 | 68 | 234 | 0.0 | 0.0 | 0.00 | 0.03 | 0.03 | 96 | 1012.4 |
| 20260509075128 | 68 | 188 | 0.9 | 0.9 | 0.00 | 0.03 | 0.03 | 96 | 1012.2 |
| 20260509074624 | 68 | 236 | 0.9 | 0.9 | 0.00 | 0.03 | 0.03 | 96 | 1012.1 |
| 20260509074121 | 68 | 201 | 0.9 | 0.9 | 0.00 | 0.03 | 0.03 | 96 | 1012.3 |
| 20260509073618 | 68 | 188 | 0.9 | 0.9 | 0.00 | 0.03 | 0.03 | 96 | 1012.4 |